Skip Page Navigation
NASA JPL Caltech
NASA Logo - Jet Propulsion Laboratory + View the NASA Portal
+ Near-Earth Object (NEO) Program
Search JPL
JPL Home Earth Solar System Stars & Galaxies Technology
JPL Solar System Dynamics
BODIES ORBITS EPHEMERIDES TOOLS PHYSICAL DATA DISCOVERY FAQ SITE MAP
JPL Small-Body Database Browser
Search: [ help ]  
184708 (2005 SD134)
Classification: Main-belt Asteroid          SPK-ID: 2184708
Ephemeris | Orbit Diagram | Orbital Elements | Physical Parameters | Discovery Circumstances ]

[ hide orbit diagram ]
Orbit Diagram
Note: Make sure you have Java enabled on your browser to see the applet. This applet is provided as a 3D orbit visualization tool. The applet was implemented using 2-body methods, and hence should not be used for determining accurate long-term trajectories (over several years or decades) or planetary encounter circumstances. For accurate long-term ephemerides, please instead use our Horizons system.
Orbit Viewer

Additional Notes: the orbits shown in the applet are color coded. The planets are white lines, and the asteroid/comet is a blue line. The bright white line indicates the portion of the orbit that is above the ecliptic plane, and the darker portion is below the ecliptic plane. Likewise for the asteroid/comet orbit, the light blue indicates the portion above the ecliptic plane, and the dark blue the portion below the ecliptic plane.

Orbit Viewer applet originally written and kindly provided by Osamu Ajiki (AstroArts), and further modified by Ron Baalke (JPL).


Orbital Elements at Epoch 2456400.5 (2013-Apr-18.0) TDB
Reference: MPO229844 (heliocentric ecliptic J2000)
 Element Value Uncertainty (1-sigma)   Units 
e 0.0907637 n/a  
a 2.6942902 n/a AU
q 2.4497465 n/a AU
i 2.31656 n/a deg
node 192.31981 n/a deg
peri 143.36578 n/a deg
M 296.67412 n/a deg
tp 2456684.6474150
(2014-Jan-27.14741500)
n/a JED
period 1615.3438280
4.42
n/a
n/a
d
yr
n 0.22286277 n/a deg/d
Q 2.9388339 n/a AU
  Orbit Determination Parameters
   # obs. used (total)      157  
   first obs. used      1999-??-??  
   last obs. used      2012-04-18  
   # oppositions      7  
   planetary ephem.      DE403  
   condition code      0  
   fit RMS      0.48  
   data source      MPC:mpu  
   producer      MPCLINUX  

Additional Information
 T_jup = 3.363 

Ephemeris | Orbit Diagram | Orbital Elements | Physical Parameters | Discovery Circumstances ]

Physical Parameter Table
Parameter Symbol Value Units Sigma Reference Notes
absolute magnitude H 16.7 mag n/a MPO229844  

184708 (2005 SD134)          Discovered 2005-Sep-30 by Molnar, L. A. at Calvin-Rehoboth (G98)
Reference: 20080420/Numbers.arcLast Updated: 2008-04-23

Alternate Designations
 2005 SD134 = 2001 YD142 
Ephemeris | Orbit Diagram | Orbital Elements | Physical Parameters | Discovery Circumstances ]
ABOUT SSD CREDITS/AWARDS PRIVACY/COPYRIGHT GLOSSARY LINKS
FirstGov 2013-May-21 18:13 UT
(server date/time)  
NASA Home Page
Site Manager:   Donald K. Yeomans
Webmaster  Alan B. Chamberlin